Météo par heure à Kyyany

Ce jour, 24 Juillet, Samedi

Heure Température Précipitation Vent Pression Humidité
00:00 +17°C° 0 mm 2 m/s 744 mmHg 65%
01:00 +17°C° 0 mm 2 m/s 744 mmHg 67%
02:00 +16°C° 0 mm 2 m/s 744 mmHg 68%
03:00 +17°C° 0 mm 2 m/s 744 mmHg 69%
04:00 +17°C° 0 mm 2 m/s 744 mmHg 71%
05:00 +18°C° 0 mm 1 m/s 744 mmHg 72%
06:00 +19°C° 0 mm 2 m/s 744 mmHg 65%
07:00 +21°C° 0 mm 2 m/s 744 mmHg 57%
08:00 +24°C° 0 mm 2 m/s 744 mmHg 50%
09:00 +25°C° 0 mm 2 m/s 744 mmHg 46%
10:00 +27°C° 0 mm 3 m/s 745 mmHg 43%
11:00 +28°C° 0 mm 3 m/s 745 mmHg 39%
12:00 +28°C° 0 mm 3 m/s 745 mmHg 39%
13:00 +27°C° 0 mm 3 m/s 745 mmHg 40%
14:00 +27°C° 0 mm 3 m/s 745 mmHg 41%
15:00 +27°C° 0 mm 3 m/s 745 mmHg 43%
16:00 +26°C° 0 mm 3 m/s 745 mmHg 45%
17:00 +26°C° 0 mm 3 m/s 745 mmHg 48%
18:00 +25°C° 0 mm 2 m/s 746 mmHg 52%
19:00 +23°C° 0 mm 2 m/s 746 mmHg 57%
20:00 +22°C° 0 mm 1 m/s 746 mmHg 61%
21:00 +22°C° 0 mm 1 m/s 746 mmHg 65%
22:00 +21°C° 0 mm 1 m/s 747 mmHg 68%
23:00 +20°C° 0 mm 1 m/s 747 mmHg 72%

Demain, 25 Juillet, Dimanche

Heure Température Précipitation Vent Pression Humidité
00:00 +20°C° 0 mm 1 m/s 747 mmHg 74%
01:00 +19°C° 0 mm 1 m/s 747 mmHg 77%
02:00 +19°C° 0 mm 1 m/s 747 mmHg 80%
03:00 +19°C° 0 mm 1 m/s 747 mmHg 81%
04:00 +19°C° 0 mm 1 m/s 748 mmHg 81%
05:00 +19°C° 0 mm 1 m/s 748 mmHg 82%
06:00 +21°C° 0 mm 1 m/s 748 mmHg 75%
07:00 +21°C° 0 mm 2 m/s 748 mmHg 68%
08:00 +24°C° 0 mm 2 m/s 749 mmHg 62%
09:00 +25°C° 0.1 mm 2 m/s 749 mmHg 56%
10:00 +26°C° 0.1 mm 2 m/s 749 mmHg 51%
11:00 +28°C° 0.1 mm 2 m/s 749 mmHg 46%
12:00 +27°C° 0.1 mm 2 m/s 749 mmHg 47%
13:00 +27°C° 0.1 mm 2 m/s 749 mmHg 48%
14:00 +27°C° 0.1 mm 2 m/s 749 mmHg 49%
15:00 +26°C° 0 mm 2 m/s 749 mmHg 51%
16:00 +25°C° 0 mm 2 m/s 749 mmHg 53%
17:00 +25°C° 0 mm 1 m/s 749 mmHg 55%
18:00 +24°C° 0 mm 2 m/s 749 mmHg 55%
19:00 +24°C° 0 mm 2 m/s 749 mmHg 55%
20:00 +23°C° 0 mm 2 m/s 750 mmHg 56%
21:00 +21°C° 0 mm 2 m/s 750 mmHg 55%
22:00 +21°C° 0 mm 3 m/s 750 mmHg 54%
23:00 +20°C° 0 mm 3 m/s 750 mmHg 54%

Après-demain, 26 Juillet, Lundi

Heure Température Précipitation Vent Pression Humidité
00:00 +20°C° 0 mm 3 m/s 750 mmHg 55%
01:00 +19°C° 0 mm 3 m/s 750 mmHg 56%
02:00 +19°C° 0 mm 3 m/s 750 mmHg 57%
03:00 +19°C° 0 mm 3 m/s 751 mmHg 59%
04:00 +18°C° 0 mm 3 m/s 751 mmHg 61%
05:00 +18°C° 0 mm 3 m/s 751 mmHg 63%
06:00 +20°C° 0 mm 3 m/s 751 mmHg 57%
07:00 +22°C° 0 mm 3 m/s 751 mmHg 51%
08:00 +24°C° 0 mm 3 m/s 751 mmHg 46%
09:00 +26°C° 0 mm 3 m/s 751 mmHg 41%
10:00 +27°C° 0 mm 3 m/s 751 mmHg 36%
11:00 +29°C° 0 mm 3 m/s 751 mmHg 31%
12:00 +29°C° 0 mm 4 m/s 751 mmHg 30%
13:00 +30°C° 0 mm 4 m/s 751 mmHg 29%
14:00 +32°C° 0 mm 4 m/s 750 mmHg 28%
15:00 +30°C° 0 mm 4 m/s 750 mmHg 29%
16:00 +30°C° 0 mm 4 m/s 750 mmHg 30%
17:00 +29°C° 0 mm 4 m/s 750 mmHg 31%
18:00 +27°C° 0 mm 4 m/s 750 mmHg 36%
19:00 +25°C° 0 mm 4 m/s 750 mmHg 41%
20:00 +22°C° 0 mm 4 m/s 751 mmHg 46%
21:00 +21°C° 0 mm 3 m/s 751 mmHg 48%
22:00 +20°C° 0 mm 3 m/s 751 mmHg 50%
23:00 +20°C° 0 mm 3 m/s 751 mmHg 52%

27 Juillet, Mardi

Heure Température Précipitation Vent Pression Humidité
00:00 +19°C° 0 mm 3 m/s 751 mmHg 54%
01:00 +18°C° 0 mm 3 m/s 751 mmHg 56%
02:00 +18°C° 0 mm 3 m/s 750 mmHg 57%
03:00 +18°C° 0 mm 3 m/s 751 mmHg 58%
04:00 +18°C° 0 mm 3 m/s 751 mmHg 59%
05:00 +18°C° 0 mm 3 m/s 751 mmHg 60%
06:00 +20°C° 0 mm 3 m/s 751 mmHg 53%
07:00 +22°C° 0 mm 4 m/s 751 mmHg 46%
08:00 +26°C° 0 mm 4 m/s 751 mmHg 39%
09:00 +27°C° 0 mm 4 m/s 751 mmHg 36%
10:00 +29°C° 0 mm 4 m/s 750 mmHg 34%
11:00 +30°C° 0 mm 4 m/s 750 mmHg 31%
12:00 +31°C° 0 mm 3 m/s 750 mmHg 30%
13:00 +31°C° 0 mm 3 m/s 750 mmHg 29%
14:00 +32°C° 0 mm 2 m/s 749 mmHg 27%
15:00 +32°C° 0 mm 2 m/s 749 mmHg 29%
16:00 +31°C° 0 mm 2 m/s 749 mmHg 30%
17:00 +31°C° 0 mm 2 m/s 749 mmHg 31%
18:00 +29°C° 0 mm 2 m/s 749 mmHg 35%
19:00 +28°C° 0 mm 2 m/s 749 mmHg 39%
20:00 +26°C° 0 mm 2 m/s 749 mmHg 43%
21:00 +25°C° 0 mm 2 m/s 749 mmHg 47%
22:00 +24°C° 0 mm 3 m/s 749 mmHg 51%
23:00 +22°C° 0 mm 3 m/s 749 mmHg 54%

28 Juillet, Mercredi

Heure Température Précipitation Vent Pression Humidité
00:00 +21°C° 0 mm 3 m/s 749 mmHg 56%
01:00 +21°C° 0 mm 3 m/s 749 mmHg 57%
02:00 +21°C° 0 mm 3 m/s 749 mmHg 58%
03:00 +20°C° 0 mm 3 m/s 749 mmHg 59%
04:00 +20°C° 0 mm 2 m/s 749 mmHg 60%
05:00 +20°C° 0 mm 2 m/s 748 mmHg 60%
06:00 +23°C° 0 mm 2 m/s 748 mmHg 54%
07:00 +26°C° 0 mm 2 m/s 748 mmHg 48%
08:00 +28°C° 0 mm 2 m/s 748 mmHg 42%
09:00 +29°C° 0 mm 3 m/s 748 mmHg 38%
10:00 +31°C° 0 mm 3 m/s 748 mmHg 34%
11:00 +33°C° 0 mm 3 m/s 748 mmHg 30%
12:00 +34°C° 0 mm 3 m/s 747 mmHg 28%
13:00 +34°C° 0 mm 3 m/s 747 mmHg 27%
14:00 +35°C° 0 mm 3 m/s 747 mmHg 25%
15:00 +34°C° 0 mm 3 m/s 746 mmHg 26%
16:00 +34°C° 0 mm 3 m/s 746 mmHg 28%
17:00 +34°C° 0 mm 3 m/s 746 mmHg 29%
18:00 +31°C° 0 mm 3 m/s 745 mmHg 34%
19:00 +29°C° 0 mm 3 m/s 745 mmHg 39%
20:00 +27°C° 0 mm 3 m/s 745 mmHg 44%
21:00 +26°C° 0 mm 3 m/s 745 mmHg 47%
22:00 +26°C° 0 mm 4 m/s 745 mmHg 49%
23:00 +25°C° 0 mm 4 m/s 744 mmHg 52%

29 Juillet, Jeudi

Heure Température Précipitation Vent Pression Humidité
00:00 +25°C° 0 mm 4 m/s 744 mmHg 55%
01:00 +23°C° 0 mm 4 m/s 744 mmHg 57%
02:00 +22°C° 0 mm 3 m/s 743 mmHg 60%
03:00 +22°C° 0.1 mm 3 m/s 743 mmHg 64%
04:00 +21°C° 0.1 mm 4 m/s 743 mmHg 68%
05:00 +21°C° 0.1 mm 4 m/s 743 mmHg 71%
06:00 +21°C° 0.5 mm 4 m/s 743 mmHg 73%
07:00 +22°C° 0.5 mm 4 m/s 743 mmHg 74%
08:00 +23°C° 0.5 mm 5 m/s 743 mmHg 75%
09:00 +26°C° 0 mm 5 m/s 743 mmHg 66%
10:00 +28°C° 0 mm 5 m/s 743 mmHg 56%
11:00 +30°C° 0 mm 5 m/s 743 mmHg 47%
12:00 +32°C° 0 mm 6 m/s 742 mmHg 45%
13:00 +32°C° 0 mm 6 m/s 742 mmHg 43%
14:00 +32°C° 0 mm 7 m/s 742 mmHg 42%
15:00 +30°C° 0.1 mm 7 m/s 742 mmHg 46%
16:00 +29°C° 0.1 mm 7 m/s 741 mmHg 51%
17:00 +28°C° 0.1 mm 7 m/s 741 mmHg 55%
18:00 +27°C° 0.4 mm 6 m/s 742 mmHg 65%
19:00 +25°C° 0.4 mm 4 m/s 742 mmHg 75%
20:00 +22°C° 0.4 mm 3 m/s 743 mmHg 85%
21:00 +21°C° 0 mm 3 m/s 743 mmHg 88%
22:00 +20°C° 0 mm 3 m/s 743 mmHg 90%
23:00 +20°C° 0 mm 3 m/s 743 mmHg 93%
Voir plus

Nous avons besoin de votre consentement

Meteoprog et ses fournisseurs de services peuvent stocker et accéder à des données personnelles telles que des cookies, des identifiants d'appareils ou d'autres technologies similaires sur votre appareil et traiter ces données pour personnaliser le contenu et les publicités, ainsi que pour fournir des fonctionnalités de médias sociaux et analyser le trafic.

  • Stocker et/ou accéder à des informations sur votre appareil

    Des cookies, des identifiants d'appareils ou d'autres informations peuvent être stockés ou accessibles sur votre appareil aux fins indiquées ci-dessus.

  • Annonces et contenus personnalisés, mesure des annonces et des contenus, connaissance de l'audience et développement de produits

    Les annonces et le contenu peuvent être personnalisés en fonction d'un profil. D'autres données peuvent être ajoutées pour mieux personnaliser les annonces et le contenu. Les performances des publicités et du contenu peuvent être mesurées. Il est possible d'obtenir des informations sur le public qui a vu les publicités et le contenu. Ces données peuvent être utilisées pour développer ou améliorer l'expérience de l'utilisateur, les systèmes et les logiciels.

En cliquant sur "J'accepte", vous autorisez l'utilisation de cookies, des identifiants d'appareils, des balises web ou d'autres technologies similaires. Vos paramètres peuvent être modifiés dans le navigateur de votre appareil.

Dans certains cas, des intérêts légitimes peuvent être invoqués plutôt qu'un consentement. Vous pouvez en savoir plus à ce sujet dans notre Politique de confidentialité et de cookies.